SCP
0 0 0 0 0 0 0 0 0 0 0 0 0 0 0 0 0 0 0 0 0 0 0 0 0 0 0 0 0 0 0 0 0 0 0 0 0 0 0 0 0 0 0 0 0 0 0 0 0
0 0 0 0 0 0 0 0 0 0 0 0 0 0 0 0 0 0 0 0 0 0 0 0 0 0 0 0 0 0 0 0 0 0 0 0 0 0 0 0 0 0 0 0 0 0 0 0 0
-0 -0 0 0 0 0 0 0 0 0 0 0 0 0 0 0 0 0 0 0 0 0 0 0 0 0 0 0 0 0 0 0 0 0 0 0 0 0 0 0 0 0 0 0 0 0 0 0 0
0 0 0 0 0 0 0 0 0 0 0 0 0 0 0 0 0 0 0 0 0 0 0 0 0 0 0 0 0 0 0 0 0 0 0 0 0 0 0 0 0 0 0 0 0 0 0 0 0
0 0 0 0 0 0 0 0 0 0 0 0 0 0 0 0 0 0 0 0 0 0 0 0 0 0 0 0 0 0 0 0 0 0 0 0 0 0 0 0 0 0 0 0 0 0 0 0 0
0 0 0 0 0 0 0 0 0 0 0 0 0 0 0 0 0 0 0 0 0 0 0 0 0 0 0 0 0 0 0 0 0 0 0 0 0 0 0 0 0 0 0 0 0 0 0 0 0
0 0 0 0 0 0 0 0 0 0 0 0 0 0 0 0 0 0 0 0 0 0 0 0 0 0 0 0 0 0 0 0 0 0 0 0 0 0 0 0 0 0 0 0 0 0 0 0 0
0 0 0 0 0 0 0 0 0 0 0 0 0 0 0 0 0 0 0 0 0 0 0 0 0 0 0 0 0 0 0 0 0 0 0 0 0 0 0 0 0 0 0 0 0 0 0 0 0
0 0 0 0 0 0 0 0 0 0 0 0 0 0 0 0 0 0 0 0 0 0 0 0 0 0 0 0 0 0 0 0 0 0 0 0 0 0 0 0 0 0 0 0 0 0 0 0 0
0 0 0 0 0 0 0 0 0 0 0 0 0 0 0 0 0 0 0 0 0 0 0 0 0 0 0 0 0 0 0 0 0 0 0 0 0 0 0 0 0 0 0 0 0 0 0 0 0
0 0 0 0 0 0 0 0 0 0 0 0 0 0 0 0 0 0 0 0 0 0 0 0 0 0 0 0 0 0 0 0 0 0 0 0 0 0 0 0 0 0 0 0 0 0 0 0 0
0 0 0 0 0 0 0 0 0 0 0 0 0 0 0 0 0 0 0 0 0 0 0 0 0 0 0 0 0 0 0 0 0 0 0 0 0 0 0 0 0 0 0 0 0 0 0 0 0
0 0 0 0 0 0 0 0 0 0 0 0 0 0 0 0 0 0 0 0 0 0 0 0 0 0 0 0 0 0 0 0 0 0 0 0 0 0 0 0 0 0 0 0 0 0 0 0 0
0 0 0 0 0 0 0 0 0 0 0 0 0 0 0 0 0 0 0 0 0 0 0 0 0 0 0 0 0 0 0 0 0 0 0 0 0 0 0 0 0 0 0 0 0 0 0 0 0
0 0 0 0 0 0 0 0 0 0 0 0 0 0 0 0 0 0 0 0 0 0 0 0 0 0 0 0 0 0 0 0 0 0 0 0 0 0 0 0 0 0 0 0 0 0 0 0 0
0 0 0 0 0 0 0 0 0 0 0 0 0 0 0 0 0 0 0 0 0 0 0 0 0 0 0 0 0 0 0 0 0 0 0 0 0 0 0 0 0 0 0 0 0 0 0 0 0
0 0 0 0 0 0 0 0 0 0 0 0 0 0 0 0 0 0 0 0 0 0 0 0 0 0 0 0 0 0 0 0 0 0 0 0 0 0 0 0 0 0 0 0 0 0 0 0 0
0 0 0 0 0 0 0 0 0 -0 -0 0 0 0 0 0 0 0 0 0 0 0 0 0 0 0 0 0 0 0 0 0 0 0 0 0 0 0 0 0 0 0 0 0 0 0 0 0 0
0 0 0 0 0 0 0 0 0 0 0 0 0 0 0 0 0 0 0 0 0 0 0 0 0 0 0 0 0 0 0 0 0 0 0 0 0 0 0 0 0 0 0 0 0 0 0 0 0
0 0 0 0 0 0 0 0 0 0 0 0 -0 0 0 0 0 0 0 0 0 0 0 0 0 0 0 0 0 0 0 0 0 0 0 0 0 0 0 0 0 0 0 0 0 0 0 0 0
0 0 0 0 0 0 0 0 0 0 0 0 0 0 0 -0 0 0 0 0 0 0 0 0 0 0 0 0 0 0 0 0 0 0 0 0 0 0 0 0 0 0 0 0 0 0 0 0 0
0 0 0 0 0 0 0 0 0 0 0 0 0 0 0 0 -0 0 0 0 0 0 0 0 0 0 0 0 0 0 0 0 0 0 0 0 0 0 0 0 0 0 0 0 0 0 0 0 0
0 0 0 0 0 0 0 0 0 0 0 0 0 0 0 0 0 0 0 0 0 0 0 0 0 0 0 0 0 0 0 0 0 0 0 0 0 0 0 0 0 0 0 0 0 0 0 0 0
0 0 0 0 0 0 0 0 0 0 0 0 0 0 0 0 0 0 0 0 0 0 0 0 0 0 0 0 0 0 0 0 0 0 0 0 0 0 0 0 0 0 0 0 0 0 0 0 0
0 0 0 0 0 0 0 0 0 0 0 0 0 0 0 0 0 0 0 0 0 0 0 0 0 0 0 0 0 0 0 0 0 0 0 0 0 0 0 0 0 0 0 0 0 0 0 0 0
0 0 0 0 0 0 0 0 0 0 0 0 0 0 0 0 0 0 0 0 0 0 0 0 0 0 0 0 0 0 0 0 0 0 0 0 0 0 0 0 0 0 0 0 0 0 0 0 0
0 0 0 0 0 0 0 0 0 0 0 0 0 0 0 0 0 0 0 0 0 0 0 0 0 0 0 0 0 0 0 0 0 0 0 0 0 0 0 0 0 0 0 0 0 0 0 0 0
0 0 0 0 0 0 0 0 0 0 0 0 0 0 0 0 0 0 0 0 0 0 0 0 0 0 0 0 0 0 0 0 0 0 0 0 0 0 0 0 0 0 0 0 0 0 0 0 0
0 0 0 0 0 0 0 0 0 0 0 0 0 0 0 0 0 0 0 0 0 0 0 0 0 0 0 0 0 0 0 0 0 0 0 0 0 0 0 0 0 0 0 0 0 0 0 0 0
0 0 0 0 0 0 0 0 0 0 0 0 0 0 0 0 0 0 0 0 0 0 0 0 0 0 0 0 0 0 0 0 0 0 0 0 0 0 0 0 0 0 0 0 0 0 0 0 0
Wind_Speed
13 5 2 4 6 5 1 3 2 1 1 0 2 5 7 6 5 3 1 7 10 10 9 11 13 14 14 14 13 12 12 12 12 12 12 12 11 11 11 11 11 11 11 11 11 11 10 9 9
6 2 4 5 5 1 4 3 3 4 3 3 3 3 3 2 1 4 5 6 10 11 9 9 12 13 14 14 13 12 12 11 12 12 11 11 11 11 11 10 10 10 10 10 10 9 9 8 8
5 3 4 5 4 5 4 3 4 1 3 3 2 1 2 3 3 6 5 10 10 9 8 9 12 13 14 14 13 12 12 11 11 11 11 11 10 10 10 9 9 8 8 8 8 8 8 7 6
3 4 5 4 3 5 5 3 3 3 1 2 4 2 0 0 4 5 9 11 10 8 7 9 12 14 14 14 13 12 12 11 11 11 11 10 10 9 9 8 8 7 7 7 7 6 6 5 5
4 4 3 0 4 4 3 3 4 4 3 2 4 3 1 2 3 8 11 11 11 9 7 8 12 12 13 13 13 12 11 11 11 11 10 10 9 9 8 8 7 6 6 5 5 5 4 3 4
4 4 3 3 5 4 3 2 4 3 2 2 5 4 2 1 6 9 10 9 9 9 8 7 11 11 11 11 11 11 11 10 10 10 10 9 9 8 7 7 6 6 5 4 4 3 2 2 2
4 3 4 5 3 4 3 3 4 3 3 5 6 5 2 2 5 8 8 8 7 7 7 6 7 8 10 10 9 9 9 9 9 9 8 8 7 7 6 5 6 6 5 4 3 2 1 1 1
4 4 3 4 4 5 2 2 3 5 4 2 5 6 5 5 7 8 7 7 7 6 7 7 6 6 6 6 8 8 8 8 8 8 7 7 6 5 5 4 4 4 4 4 3 2 2 2 2
3 3 6 7 7 5 1 1 0 2 4 2 2 3 2 10 12 11 7 7 8 8 7 7 7 6 6 5 6 7 7 8 7 6 7 6 3 3 3 4 4 3 3 4 4 3 3 2 3
3 5 9 5 5 3 2 3 2 3 2 1 1 0 4 11 14 14 12 13 13 12 11 8 8 7 6 5 4 4 4 4 4 4 4 3 3 3 3 4 4 4 3 4 4 4 3 2 1
4 7 4 3 2 2 2 2 2 5 4 7 7 6 9 11 13 14 13 13 13 11 11 10 9 8 7 5 4 3 2 3 4 5 5 4 3 2 2 1 2 2 3 2 3 2 1 2 2
3 4 3 3 2 2 3 2 2 5 7 5 6 8 11 15 16 16 15 13 10 10 12 11 10 9 8 6 4 4 3 3 3 4 5 4 3 3 3 2 2 2 2 2 2 2 3 3 3
4 4 3 3 3 3 3 4 4 6 6 2 3 8 12 15 15 13 10 8 9 11 12 11 11 10 9 7 5 6 5 5 5 4 5 5 4 4 4 3 3 3 3 3 3 3 3 4 4
3 3 4 4 4 3 3 5 4 7 2 2 5 9 11 14 14 10 9 10 12 13 12 11 12 11 9 8 7 6 6 5 5 5 6 7 5 5 4 4 4 4 3 3 3 4 4 3 3
1 2 5 5 4 3 2 9 10 6 3 4 6 7 9 10 9 11 12 12 12 11 10 11 11 11 11 10 9 6 6 6 6 6 6 7 6 6 5 4 4 4 4 4 3 4 3 3 3
1 2 6 5 5 4 6 15 8 4 5 8 7 7 8 9 10 10 10 9 9 8 10 11 10 11 12 10 9 6 6 7 6 6 6 8 8 7 6 5 5 4 4 4 3 3 3 3 3
3 6 7 4 4 4 8 11 5 3 5 8 8 8 9 9 10 10 9 9 9 10 10 10 11 11 12 10 8 7 6 7 6 6 6 7 8 8 7 6 5 5 4 4 4 4 3 4 4
6 5 5 6 3 4 8 11 6 3 4 7 7 7 8 10 12 10 9 9 9 9 9 10 10 10 9 7 5 5 6 6 6 6 7 8 7 8 8 6 6 5 4 5 4 5 4 3 3
3 4 6 5 3 4 9 12 10 7 7 9 9 9 10 11 10 8 7 7 7 8 9 10 11 10 8 7 7 7 8 7 6 6 7 8 8 8 8 6 6 6 6 6 6 4 4 4 2
6 7 7 4 2 3 7 13 11 9 9 10 11 12 11 10 8 7 7 7 8 9 10 10 11 10 10 9 7 5 4 4 5 4 6 7 8 8 7 8 6 6 5 6 6 5 3 3 3
10 10 7 4 3 3 5 11 9 8 8 9 10 10 10 11 11 8 7 8 8 9 10 9 11 10 10 9 4 3 3 2 3 5 6 7 8 7 7 7 7 6 6 6 6 6 6 4 3
11 7 6 4 3 4 2 9 8 7 8 10 11 10 11 10 10 9 8 7 8 9 8 9 9 9 9 9 8 9 8 8 8 5 4 4 5 6 6 6 6 6 6 6 6 6 5 5 4
5 3 5 6 5 6 5 7 10 3 9 11 11 11 10 9 9 9 8 7 6 6 6 6 7 7 7 9 11 10 9 7 4 3 4 4 4 5 5 6 5 5 5 6 5 5 6 5 5
4 2 1 2 3 10 10 8 11 6 9 7 7 7 8 7 6 5 4 3 4 3 4 5 5 6 6 8 9 11 11 9 6 5 5 4 3 3 4 5 5 5 5 5 5 5 6 5 5
5 5 2 3 5 9 5 8 12 6 6 6 7 7 6 5 4 3 3 2 3 3 3 4 5 5 6 7 8 9 10 9 9 7 6 5 4 4 5 5 5 4 5 5 4 4 5 5 5
8 8 7 7 6 4 4 10 9 5 4 4 5 5 3 2 2 2 3 2 2 2 2 2 3 4 4 6 7 7 7 6 5 6 5 5 4 4 3 4 4 4 4 4 4 4 4 3 4
6 7 4 2 1 3 6 7 9 4 4 3 3 2 3 3 2 2 2 2 2 2 1 1 2 3 3 4 5 5 6 5 5 4 4 3 3 2 3 3 4 4 4 4 4 3 3 3 3
4 5 4 5 4 5 6 6 6 3 4 3 2 2 3 3 3 3 2 2 2 2 2 1 1 2 2 2 3 3 4 5 4 4 4 3 3 3 3 2 3 3 3 3 3 2 2 3 2
3 4 4 4 3 4 4 7 5 5 3 2 2 2 2 3 3 4 4 3 3 3 3 2 1 0 0 1 2 2 2 3 3 3 3 3 3 3 3 3 3 2 2 2 2 3 2 3 2
3 4 5 4 5 4 4 7 3 2 2 1 3 3 3 3 3 2 2 3 3 3 3 2 2 2 1 1 2 2 2 2 3 2 2 2 2 2 2 3 3 2 2 1 2 2 2 2 2
Wind_Direction
330 338 77 61 55 51 250 247 216 197 212 173 138 149 158 161 169 197 125 138 135 143 152 155 156 153 150 148 146 144 141 137 135 132 129 126 123 121 117 112 110 106 103 101 98 95 92 90 88
322 346 51 60 87 86 265 246 217 209 176 125 85 102 119 167 141 129 138 151 142 144 149 153 154 154 153 151 150 150 147 143 141 138 134 131 128 125 121 118 116 113 110 107 103 99 96 94 89
333 43 75 77 125 186 229 226 209 213 162 142 107 89 154 177 168 166 165 147 138 142 145 151 154 157 157 155 154 154 152 149 148 145 142 139 135 131 128 126 122 118 117 113 108 103 97 93 87
29 40 55 84 212 219 221 232 183 140 155 129 131 113 335 290 175 167 142 143 140 142 144 153 156 161 162 160 159 160 158 158 157 153 149 148 143 140 137 135 130 123 120 118 112 104 97 91 81
53 72 67 20 246 252 245 227 171 164 178 155 136 143 189 358 116 132 142 147 148 146 146 156 159 162 164 165 165 165 165 164 163 160 155 154 150 147 145 143 141 136 129 123 119 110 98 86 73
53 70 117 224 251 273 265 185 155 167 172 151 141 146 203 85 137 147 148 149 150 150 149 156 161 162 164 167 170 170 167 165 162 161 159 156 156 157 157 155 154 153 149 144 135 126 110 89 53
113 119 189 207 237 265 246 163 168 172 186 196 162 146 237 181 164 147 141 137 141 148 150 156 161 165 167 170 172 172 170 168 165 164 161 156 157 161 162 163 168 170 171 171 171 171 180 267 325
129 125 189 205 208 241 238 177 186 172 200 163 148 159 213 191 147 132 128 134 147 157 162 163 165 165 166 171 177 176 176 173 171 168 162 160 162 161 160 164 179 191 194 197 200 203 234 276 298
103 120 210 210 198 229 205 178 198 163 131 148 201 202 213 137 139 139 144 158 170 178 179 174 173 171 169 171 180 180 180 181 177 173 170 163 159 158 164 180 195 210 217 220 225 230 245 270 301
130 191 218 209 198 214 207 190 191 136 140 201 238 62 120 141 157 165 173 179 185 189 190 186 183 180 174 179 171 174 177 177 173 168 169 163 163 172 179 200 213 224 233 240 244 249 256 267 293
185 210 221 231 223 233 233 233 196 156 201 211 206 184 154 162 172 182 187 189 192 191 191 191 190 186 182 180 172 173 172 173 176 178 176 170 170 176 184 188 221 234 238 240 256 268 256 248 252
215 239 222 240 240 236 236 227 215 198 218 226 211 171 167 176 187 193 194 193 189 190 196 194 191 191 191 185 182 180 182 184 187 188 182 174 177 189 193 198 206 211 211 217 229 238 247 254 255
227 254 254 253 265 258 258 239 241 246 256 270 152 161 181 189 197 203 200 193 191 197 200 198 194 195 194 190 191 190 194 195 195 191 189 185 187 197 199 204 206 211 208 213 224 234 246 255 261
242 268 280 266 252 244 243 270 249 250 240 179 168 187 198 201 202 198 198 199 201 205 203 198 198 198 194 196 197 196 196 197 195 199 198 193 194 196 198 207 210 213 212 214 218 227 236 245 251
270 291 289 251 221 228 205 269 241 241 217 218 212 211 214 219 212 209 208 207 206 206 203 200 201 199 199 201 201 199 197 196 203 206 203 201 200 200 201 207 212 214 209 211 219 233 237 250 253
171 210 251 250 202 197 183 251 248 221 207 229 231 227 227 230 225 224 219 216 210 205 204 205 202 200 203 203 200 201 198 200 206 205 204 206 206 203 202 209 216 207 200 203 213 223 235 248 253
202 218 232 261 212 184 198 246 249 203 205 231 236 233 233 239 239 233 224 219 213 208 206 205 203 202 204 203 200 200 197 203 206 204 207 208 208 206 206 214 215 200 202 209 214 217 218 242 253
204 215 226 224 238 202 227 249 264 256 239 248 249 244 238 238 240 236 228 224 219 213 208 208 205 206 200 195 193 196 204 210 208 208 211 207 208 206 208 215 213 201 208 215 213 220 218 229 243
219 225 241 248 262 224 242 257 263 260 255 256 257 252 245 243 246 244 233 225 219 213 209 208 205 203 191 188 195 201 211 211 210 212 210 208 208 205 207 213 211 207 214 219 214 216 223 229 212
242 251 253 273 270 240 266 269 262 246 240 239 243 248 250 252 255 246 235 223 217 215 213 210 208 202 197 200 196 193 189 199 206 206 209 210 209 207 207 210 212 210 215 219 214 209 213 215 187
234 234 238 246 323 313 305 284 257 249 242 248 243 242 245 243 246 246 237 229 219 218 215 211 209 205 202 196 173 158 157 165 191 207 213 214 210 209 209 210 212 211 211 220 218 210 213 226 209
241 223 223 240 247 261 224 276 265 241 251 249 249 244 244 244 242 242 237 233 221 221 217 213 209 205 200 189 185 190 198 207 213 209 207 199 200 207 210 210 210 215 216 222 220 213 215 217 225
219 191 211 228 233 262 234 257 275 233 246 247 245 245 246 245 240 240 236 231 227 220 211 208 205 205 199 193 194 195 206 214 204 180 185 195 197 204 209 209 211 217 221 225 223 217 217 217 223
181 106 330 229 216 247 223 223 271 224 227 243 244 249 254 254 250 247 246 231 235 229 211 201 193 205 201 194 195 198 204 204 191 188 196 200 200 205 211 208 211 217 221 224 224 219 218 220 221
174 154 186 221 220 243 197 216 253 240 233 236 252 264 266 260 258 261 261 250 243 236 223 205 192 206 203 192 195 199 204 202 201 199 200 197 201 211 216 208 212 217 222 222 217 213 217 217 214
193 179 187 200 216 256 206 231 253 256 250 251 261 276 290 296 288 278 271 257 254 248 231 202 193 208 204 194 197 199 200 200 203 202 196 197 204 210 205 200 205 211 214 214 212 212 217 210 210
182 204 195 187 259 252 243 268 297 287 292 292 288 301 299 295 294 294 306 311 308 294 270 222 199 202 204 199 194 192 191 191 192 191 192 193 194 190 188 189 196 206 209 209 205 208 207 197 202
194 161 162 192 200 235 253 246 245 263 268 284 304 316 312 315 328 339 339 332 336 337 335 334 210 207 209 196 193 185 188 186 184 177 177 182 184 174 171 176 187 199 202 198 194 195 195 187 195
171 185 190 190 196 201 253 261 230 223 232 265 287 303 319 330 333 333 341 352 2 10 16 11 3 34 146 167 172 165 169 165 166 169 176 180 170 165 167 172 172 177 182 185 181 188 178 183 194
187 194 180 196 231 220 249 269 291 257 296 335 316 329 334 336 333 327 332 351 3 3 4 10 12 26 25 129 151 157 155 145 148 159 162 154 155 158 163 163 158 156 162 159 160 177 179 183 188